SCP
0 0 0 0 0 0 0 0 0 0 0 0 0 0 0 0 0 0 0 0 0 0 0 0 0 0 0 0 0 0 1 1 0 0 0 0 0 0 0 0 0 0 0
0 0 0 0 0 0 0 0 0 0 0 0 0 0 0 0 0 0 0 0 0 0 0 0 0 0 0 0 0 0 0 0 0 0 0 0 0 0 0 0 0 0 0
0 0 0 0 0 0 0 0 0 0 0 0 0 0 0 0 0 0 0 0 0 0 0 0 0 0 0 0 0 0 0 0 0 0 0 0 0 0 0 0 0 0 0
0 -0 -0 0 0 0 0 0 0 0 0 0 0 0 0 0 0 0 0 0 0 0 0 0 0 0 0 0 0 0 0 0 0 0 0 0 0 0 0 0 0 0 0
0 0 0 0 0 0 0 0 0 0 0 0 0 0 0 0 0 0 0 0 0 0 0 0 0 0 0 0 0 0 0 0 0 0 0 0 0 0 0 0 0 0 0
0 0 0 0 0 0 0 0 0 0 0 0 0 0 0 0 0 0 0 0 0 0 0 0 0 0 0 0 0 0 0 0 0 0 0 0 0 0 0 0 0 0 -0
0 0 0 0 0 0 0 0 0 0 0 0 0 0 0 0 0 0 0 0 0 0 0 0 0 0 0 0 0 0 0 0 0 0 0 0 0 0 0 -0 -0 0 0
0 0 0 0 0 0 0 0 0 0 0 0 0 0 0 0 0 0 0 0 0 0 0 0 0 0 0 -0 0 0 0 0 0 0 0 0 -0 -0 -0 -0 0 -0 -0
0 0 0 0 0 0 0 0 0 0 0 0 0 0 0 0 0 0 0 0 0 0 0 0 0 0 0 0 0 0 -0 0 0 -0 0 0 0 -0 -0 -0 -0 0 0
0 0 0 0 0 0 0 0 0 0 0 0 0 0 -0 0 0 0 0 0 0 0 0 0 0 0 0 0 0 0 -0 0 -0 -0 -0 0 0 0 0 0 0 0 0
0 0 0 0 0 0 0 0 0 0 0 0 -0 -0 -0 -0 -0 -0 -0 0 0 0 0 0 0 0 0 0 0 0 -0 -0 0 0 0 0 0 -0 -0 -0 -0 0 0
0 0 0 -0 0 0 0 0 0 0 0 0 -0 -0 -0 -0 -0 -0 -0 0 0 0 0 0 0 -0 -0 0 -0 0 -0 -0 0 0 0 0 0 0 -0 -0 0 0 0
-0 -0 0 0 0 0 0 0 0 0 0 0 0 0 0 0 0 -0 -0 -0 -0 -0 -0 -0 -0 -0 0 0 0 -0 -0 0 0 0 0 0 -0 -0 -0 0 0 0 0
0 0 0 0 0 0 0 0 0 0 0 0 0 -0 0 0 0 0 0 -0 -0 -0 -0 -0 -0 -0 -0 0 0 -0 0 0 0 0 -0 -0 -0 -0 -0 0 0 0 0
0 0 0 0 0 0 0 0 0 0 0 0 0 0 0 0 0 -0 -0 -0 -0 0 0 0 -0 0 0 0 0 -0 0 0 0 -0 -0 -0 -0 0 0 -0 -0 0 0
0 0 0 0 0 0 0 0 0 0 0 0 -0 -0 -0 -0 -0 -0 -0 0 -0 -0 -0 0 0 0 0 0 0 0 0 0 -0 -0 -0 -0 -0 -0 0 -0 -0 0 0
0 0 0 0 0 0 0 0 0 0 -0 -0 -0 -0 -0 -0 0 -0 -0 -0 0 0 0 0 0 0 -0 0 0 0 -0 -0 -0 -0 -0 -0 -0 0 0 0 0 0 0
0 0 0 0 0 0 0 0 0 0 0 0 -0 -0 0 0 0 0 0 0 0 0 0 0 0 0 0 0 0 -0 -0 -0 -0 -0 -0 -0 -0 -0 0 0 0 0 0
0 0 0 0 0 0 0 0 0 0 0 0 -0 0 0 0 0 0 0 0 0 0 0 0 0 0 0 -0 -0 -0 -0 -0 -0 -0 -0 -0 -0 -0 0 0 0 0 -0
0 0 0 0 0 0 0 0 0 0 0 -0 0 0 0 0 0 0 0 0 -0 -0 0 0 0 -0 -0 -0 -0 -0 -0 -0 -0 -0 -0 -0 -0 -0 0 0 0 -0 -0
0 0 0 0 0 0 0 0 0 -0 0 0 0 0 0 0 0 0 -0 -0 0 0 0 -0 -0 -0 -0 -0 -0 -0 -0 -0 -0 -0 -0 -0 -0 -0 -0 -0 -0 -0 -0
0 0 0 0 0 0 0 0 0 0 0 0 0 -0 -0 -0 -0 -0 -0 -0 -0 -0 -0 -0 -0 -0 -0 -0 -0 -0 -0 -0 -0 -0 -0 -0 -0 -0 -0 -0 -0 -0 0
0 0 0 0 0 0 0 0 0 0 0 0 -0 -0 -0 -0 -0 -0 0 -0 -0 -0 -0 -0 -0 -0 -0 -0 -0 -0 -0 -0 -0 -0 -0 -0 -0 -0 -0 -0 -0 0 -0
0 0 0 0 0 0 0 0 0 0 -0 -0 -0 -0 -0 -0 0 0 -0 -0 -0 -0 -0 -0 -0 -0 -0 -0 -0 -0 -0 -0 -0 -0 -0 -0 -0 -0 -0 -0 -0 -0 -0
0 0 0 0 0 0 0 0 -0 -0 -0 -0 -0 0 0 -0 -0 -0 -0 -0 -0 -0 -0 -0 -0 -0 -0 -0 -0 -0 -0 -0 -0 -0 -0 -0 -0 -0 -0 0 -0 -0 -0
0 0 0 0 0 0 -0 -0 -0 -0 -0 -0 -0 -0 -0 -0 -0 -0 -0 -0 -0 -0 -0 -0 -0 -0 -0 -0 -0 -0 -0 -0 -0 -0 -0 -0 -0 -0 -0 0 -0 -0 -0
Wind_Speed_500mb
47 54 61 65 69 73 79 82 84 79 70 63 60 58 55 53 49 56 58 58 59 62 61 54 54 61 60 60 58 51 49 50 56 52 47 52 50 61 71 58 53 40 30
53 60 63 64 68 74 76 77 74 68 58 56 53 53 48 41 40 47 49 50 55 60 58 53 51 49 43 41 40 36 39 42 44 49 44 37 46 53 49 44 40 30 28
61 66 66 64 67 67 69 67 59 54 51 48 46 47 38 36 38 43 45 49 53 51 47 42 38 32 27 27 29 27 28 33 35 36 32 37 39 39 33 32 26 25 18
61 65 59 58 55 56 56 46 48 46 46 43 42 40 38 36 39 42 45 48 42 35 29 26 18 12 12 15 17 16 17 21 20 18 32 47 47 35 29 24 22 18 16
60 59 54 51 43 46 50 48 43 40 38 40 41 36 34 35 38 38 43 38 26 19 16 5 3 7 11 12 11 13 12 7 4 23 47 50 43 36 30 24 19 9 7
61 56 49 46 48 54 53 52 40 36 35 38 35 29 29 32 34 32 30 24 19 13 14 18 25 29 27 23 23 26 36 27 31 47 48 46 39 34 30 26 7 2 3
60 52 53 55 61 64 61 47 42 34 36 32 24 22 26 26 22 18 18 15 14 20 27 32 38 37 35 37 46 53 56 52 47 45 46 43 38 31 24 17 9 5 2
65 60 64 60 49 40 36 39 38 30 29 19 18 20 20 15 10 8 15 21 32 40 42 42 43 44 41 43 44 51 54 55 52 48 42 36 27 19 17 16 18 19 15
53 45 37 35 35 29 30 30 32 27 15 15 17 15 10 8 13 24 29 35 46 50 48 49 51 49 42 36 38 46 52 53 46 42 41 41 35 27 22 19 15 9 11
45 42 32 37 28 20 21 15 18 15 15 16 15 10 13 23 29 34 44 51 55 61 58 53 49 44 37 38 43 44 47 46 43 42 44 44 41 36 31 27 19 15 8
38 32 26 20 31 29 20 20 14 14 22 17 14 16 27 32 40 45 52 58 62 65 60 53 46 48 49 48 49 52 48 43 38 36 33 32 35 37 36 35 33 27 19
25 23 21 21 16 19 21 17 14 24 23 22 26 36 36 37 43 53 59 61 60 60 57 49 48 48 51 51 51 48 45 35 27 25 29 31 29 31 29 29 30 32 32
16 15 14 16 16 20 20 12 27 28 29 38 45 47 45 47 46 52 56 53 55 59 54 48 46 49 52 51 44 40 33 32 30 30 27 27 29 29 26 25 27 31 31
18 16 18 25 24 12 19 28 31 30 40 49 53 62 66 67 61 55 53 51 53 54 47 46 48 48 47 44 39 32 33 35 31 27 26 23 23 21 26 21 16 18 21
25 26 28 32 31 36 37 33 35 39 47 58 63 66 67 64 55 49 47 47 43 45 50 49 48 45 41 39 38 34 27 26 29 26 22 21 21 21 20 20 16 11 16
46 49 48 48 48 48 49 53 42 43 52 62 67 69 66 62 52 46 42 43 44 45 51 51 50 47 44 37 30 29 25 22 21 22 22 19 18 17 16 17 14 16 12
50 51 53 51 52 59 64 71 81 74 73 72 68 64 59 50 47 51 47 46 46 48 52 47 44 38 36 35 32 28 26 24 19 19 21 19 18 18 18 19 17 14 14
46 48 56 64 71 79 86 91 90 90 87 74 59 51 51 57 55 51 49 51 51 50 45 41 38 35 34 31 27 25 23 21 21 21 21 21 21 19 18 19 19 20 19
54 60 67 74 84 89 90 90 91 87 78 70 61 64 58 56 53 51 51 57 52 47 47 46 41 37 33 31 29 27 24 25 23 22 21 19 19 17 18 18 18 21 21
66 72 81 88 90 90 90 88 83 78 62 67 68 63 56 54 56 58 57 55 53 50 47 45 40 36 32 27 25 25 25 24 23 23 23 21 20 20 21 19 19 20 19
73 80 86 89 91 88 84 80 74 68 74 67 60 53 52 56 58 57 55 54 52 48 44 41 37 35 33 32 30 28 28 27 28 27 25 23 22 21 20 18 19 23 22
77 79 82 88 85 80 73 67 75 74 70 67 61 53 52 57 56 56 55 52 49 48 45 44 44 42 39 34 32 34 37 35 32 28 26 25 21 20 20 19 20 27 24
76 81 86 81 77 73 72 70 68 64 59 58 54 52 52 53 53 52 51 50 47 47 45 44 43 43 45 48 47 42 41 42 40 35 29 28 27 24 23 24 23 27 27
80 80 78 76 66 58 59 62 62 60 57 53 50 50 50 51 52 52 50 47 47 45 44 47 48 47 46 45 44 45 47 46 42 43 39 33 28 28 26 25 28 29 28
72 70 59 54 60 63 60 56 56 53 50 48 51 52 53 53 52 50 48 45 43 43 45 47 49 48 46 45 45 46 46 49 49 48 44 41 35 31 29 27 30 31 29
63 59 59 58 57 55 55 54 50 47 50 52 52 52 51 50 49 47 44 42 43 45 48 50 47 44 43 45 46 45 45 48 50 51 47 46 46 38 31 29 30 33 35
Wind_Direction_500mb
303 305 306 305 301 300 300 301 302 305 303 295 291 292 290 280 270 271 273 279 284 286 280 275 271 269 269 274 277 272 272 275 271 262 257 254 243 221 214 212 213 206 196
303 305 306 304 301 300 299 298 301 300 297 292 292 295 291 277 272 270 274 281 283 281 277 270 270 275 276 276 280 279 272 270 265 262 248 218 213 201 196 188 181 175 176
303 305 305 301 300 298 297 299 299 295 292 290 291 295 284 270 264 272 282 287 285 280 272 268 270 275 281 286 287 286 278 273 270 262 223 198 179 176 162 152 150 150 129
305 305 300 297 297 295 298 296 296 292 291 290 289 284 278 262 268 279 287 289 283 270 263 267 272 285 303 309 309 307 293 282 269 241 191 171 156 151 142 138 127 117 102
301 299 292 291 281 290 295 293 294 286 288 285 289 281 272 261 271 286 291 290 261 247 245 209 85 32 17 5 10 20 14 356 152 155 148 138 133 132 126 113 107 124 100
294 290 287 277 274 286 291 289 288 287 287 284 283 283 265 266 283 287 290 267 232 197 142 101 78 59 45 33 37 70 73 76 104 123 123 122 120 117 110 102 136 45 329
289 284 280 276 280 284 282 277 278 277 285 284 278 277 272 280 293 291 252 225 161 122 111 99 88 80 73 78 87 91 92 95 97 103 105 104 103 101 98 115 170 180 170
280 278 278 278 278 276 262 264 268 280 281 272 265 271 279 288 300 246 190 154 131 122 110 103 100 96 94 96 100 100 95 92 90 91 91 91 89 92 114 127 114 100 74
278 276 272 275 269 262 251 257 268 269 261 246 251 263 257 227 171 173 153 142 128 116 111 112 103 101 99 97 97 97 94 92 86 75 73 75 77 83 102 120 111 84 58
273 270 270 251 252 244 257 269 239 236 219 222 232 216 206 174 171 169 148 133 124 117 112 104 96 90 87 90 94 97 95 95 87 76 77 76 73 76 81 90 72 66 57
268 262 255 251 246 244 249 249 235 207 196 197 186 169 160 165 161 153 141 136 129 124 114 101 95 95 91 88 86 91 97 98 84 78 77 74 73 77 76 74 67 67 59
251 247 244 230 217 219 229 234 225 189 175 165 157 140 142 146 146 143 138 128 126 116 107 103 100 96 88 81 83 86 88 85 74 73 80 77 70 68 74 73 67 61 53
211 211 209 192 190 189 190 218 176 164 161 143 137 129 119 116 112 117 117 115 112 106 102 98 101 100 92 85 86 95 87 71 72 73 73 73 73 64 63 67 62 53 50
168 165 164 154 149 167 164 168 158 154 143 137 130 122 117 117 120 118 116 118 112 105 107 105 100 96 88 87 96 94 79 71 69 66 61 59 55 53 54 49 46 64 49
118 131 140 150 155 147 140 139 136 139 141 131 125 119 119 118 118 119 120 114 112 108 112 104 96 94 96 93 89 82 71 66 59 56 57 57 56 50 51 43 44 64 61
122 128 132 132 129 122 119 115 118 120 113 108 110 112 112 111 118 114 114 104 105 115 107 101 97 93 92 88 77 71 67 63 57 49 49 53 53 56 44 41 36 61 62
115 121 123 121 120 119 114 114 111 107 107 107 108 106 110 115 114 106 105 108 105 103 96 94 91 85 81 77 74 70 67 69 59 52 48 49 52 46 42 39 35 61 46
116 121 119 120 119 119 118 115 116 115 111 108 106 106 105 101 99 101 105 108 106 98 89 86 83 80 77 74 71 66 62 58 54 49 44 42 47 47 45 44 42 44 59
116 116 120 122 121 119 119 119 118 116 115 113 110 103 101 98 99 103 108 100 95 90 88 86 83 80 77 74 68 66 64 61 53 46 43 44 47 45 42 44 37 49 57
116 121 123 123 118 117 119 120 120 118 111 112 107 106 106 109 106 101 96 93 91 89 87 86 85 80 76 71 63 56 55 56 47 41 39 40 39 42 40 51 35 52 55
122 124 125 123 122 124 121 119 118 114 107 105 108 113 117 109 104 101 97 93 91 89 86 82 81 77 67 67 68 59 54 50 45 39 35 36 38 43 42 55 44 52 52
127 128 125 124 124 122 116 115 113 109 110 110 110 111 110 105 103 100 97 95 92 88 85 81 80 83 78 67 59 56 55 51 46 39 36 40 41 42 51 59 44 48 60
128 126 127 126 120 118 114 111 112 113 112 112 113 111 106 104 103 102 99 96 93 90 86 85 81 78 74 69 67 63 57 52 50 48 43 45 50 57 61 56 48 55 61
127 126 121 120 118 113 114 115 115 114 113 113 112 108 107 106 105 101 100 99 95 91 88 82 78 75 71 67 63 62 59 57 55 53 54 56 59 61 60 59 57 57 62
119 118 115 114 116 115 114 113 115 115 114 112 111 111 109 106 104 103 100 97 95 91 86 81 76 72 69 67 65 62 58 55 54 58 56 56 60 60 59 57 54 55 61
123 119 118 118 116 116 116 117 116 115 115 116 115 112 110 109 105 102 101 100 96 91 84 78 74 71 69 66 62 60 59 56 54 55 56 55 57 59 54 55 56 58 56
Wind_Speed_850mb
47 54 61 65 69 73 79 82 84 79 70 63 60 58 55 53 49 56 58 58 59 62 61 54 54 61 60 60 58 51 49 50 56 52 47 52 50 61 71 58 53 40 30
53 60 63 64 68 74 76 77 74 68 58 56 53 53 48 41 40 47 49 50 55 60 58 53 51 49 43 41 40 36 39 42 44 49 44 37 46 53 49 44 40 30 28
61 66 66 64 67 67 69 67 59 54 51 48 46 47 38 36 38 43 45 49 53 51 47 42 38 32 27 27 29 27 28 33 35 36 32 37 39 39 33 32 26 25 18
61 65 59 58 55 56 56 46 48 46 46 43 42 40 38 36 39 42 45 48 42 35 29 26 18 12 12 15 17 16 17 21 20 18 32 47 47 35 29 24 22 18 16
60 59 54 51 43 46 50 48 43 40 38 40 41 36 34 35 38 38 43 38 26 19 16 5 3 7 11 12 11 13 12 7 4 23 47 50 43 36 30 24 19 9 7
61 56 49 46 48 54 53 52 40 36 35 38 35 29 29 32 34 32 30 24 19 13 14 18 25 29 27 23 23 26 36 27 31 47 48 46 39 34 30 26 7 2 3
60 52 53 55 61 64 61 47 42 34 36 32 24 22 26 26 22 18 18 15 14 20 27 32 38 37 35 37 46 53 56 52 47 45 46 43 38 31 24 17 9 5 2
65 60 64 60 49 40 36 39 38 30 29 19 18 20 20 15 10 8 15 21 32 40 42 42 43 44 41 43 44 51 54 55 52 48 42 36 27 19 17 16 18 19 15
53 45 37 35 35 29 30 30 32 27 15 15 17 15 10 8 13 24 29 35 46 50 48 49 51 49 42 36 38 46 52 53 46 42 41 41 35 27 22 19 15 9 11
45 42 32 37 28 20 21 15 18 15 15 16 15 10 13 23 29 34 44 51 55 61 58 53 49 44 37 38 43 44 47 46 43 42 44 44 41 36 31 27 19 15 8
38 32 26 20 31 29 20 20 14 14 22 17 14 16 27 32 40 45 52 58 62 65 60 53 46 48 49 48 49 52 48 43 38 36 33 32 35 37 36 35 33 27 19
25 23 21 21 16 19 21 17 14 24 23 22 26 36 36 37 43 53 59 61 60 60 57 49 48 48 51 51 51 48 45 35 27 25 29 31 29 31 29 29 30 32 32
16 15 14 16 16 20 20 12 27 28 29 38 45 47 45 47 46 52 56 53 55 59 54 48 46 49 52 51 44 40 33 32 30 30 27 27 29 29 26 25 27 31 31
18 16 18 25 24 12 19 28 31 30 40 49 53 62 66 67 61 55 53 51 53 54 47 46 48 48 47 44 39 32 33 35 31 27 26 23 23 21 26 21 16 18 21
25 26 28 32 31 36 37 33 35 39 47 58 63 66 67 64 55 49 47 47 43 45 50 49 48 45 41 39 38 34 27 26 29 26 22 21 21 21 20 20 16 11 16
46 49 48 48 48 48 49 53 42 43 52 62 67 69 66 62 52 46 42 43 44 45 51 51 50 47 44 37 30 29 25 22 21 22 22 19 18 17 16 17 14 16 12
50 51 53 51 52 59 64 71 81 74 73 72 68 64 59 50 47 51 47 46 46 48 52 47 44 38 36 35 32 28 26 24 19 19 21 19 18 18 18 19 17 14 14
46 48 56 64 71 79 86 91 90 90 87 74 59 51 51 57 55 51 49 51 51 50 45 41 38 35 34 31 27 25 23 21 21 21 21 21 21 19 18 19 19 20 19
54 60 67 74 84 89 90 90 91 87 78 70 61 64 58 56 53 51 51 57 52 47 47 46 41 37 33 31 29 27 24 25 23 22 21 19 19 17 18 18 18 21 21
66 72 81 88 90 90 90 88 83 78 62 67 68 63 56 54 56 58 57 55 53 50 47 45 40 36 32 27 25 25 25 24 23 23 23 21 20 20 21 19 19 20 19
73 80 86 89 91 88 84 80 74 68 74 67 60 53 52 56 58 57 55 54 52 48 44 41 37 35 33 32 30 28 28 27 28 27 25 23 22 21 20 18 19 23 22
77 79 82 88 85 80 73 67 75 74 70 67 61 53 52 57 56 56 55 52 49 48 45 44 44 42 39 34 32 34 37 35 32 28 26 25 21 20 20 19 20 27 24
76 81 86 81 77 73 72 70 68 64 59 58 54 52 52 53 53 52 51 50 47 47 45 44 43 43 45 48 47 42 41 42 40 35 29 28 27 24 23 24 23 27 27
80 80 78 76 66 58 59 62 62 60 57 53 50 50 50 51 52 52 50 47 47 45 44 47 48 47 46 45 44 45 47 46 42 43 39 33 28 28 26 25 28 29 28
72 70 59 54 60 63 60 56 56 53 50 48 51 52 53 53 52 50 48 45 43 43 45 47 49 48 46 45 45 46 46 49 49 48 44 41 35 31 29 27 30 31 29
63 59 59 58 57 55 55 54 50 47 50 52 52 52 51 50 49 47 44 42 43 45 48 50 47 44 43 45 46 45 45 48 50 51 47 46 46 38 31 29 30 33 35
Wind_Direction_850mb
303 305 306 305 301 300 300 301 302 305 303 295 291 292 290 280 270 271 273 279 284 286 280 275 271 269 269 274 277 272 272 275 271 262 257 254 243 221 214 212 213 206 196
303 305 306 304 301 300 299 298 301 300 297 292 292 295 291 277 272 270 274 281 283 281 277 270 270 275 276 276 280 279 272 270 265 262 248 218 213 201 196 188 181 175 176
303 305 305 301 300 298 297 299 299 295 292 290 291 295 284 270 264 272 282 287 285 280 272 268 270 275 281 286 287 286 278 273 270 262 223 198 179 176 162 152 150 150 129
305 305 300 297 297 295 298 296 296 292 291 290 289 284 278 262 268 279 287 289 283 270 263 267 272 285 303 309 309 307 293 282 269 241 191 171 156 151 142 138 127 117 102
301 299 292 291 281 290 295 293 294 286 288 285 289 281 272 261 271 286 291 290 261 247 245 209 85 32 17 5 10 20 14 356 152 155 148 138 133 132 126 113 107 124 100
294 290 287 277 274 286 291 289 288 287 287 284 283 283 265 266 283 287 290 267 232 197 142 101 78 59 45 33 37 70 73 76 104 123 123 122 120 117 110 102 136 45 329
289 284 280 276 280 284 282 277 278 277 285 284 278 277 272 280 293 291 252 225 161 122 111 99 88 80 73 78 87 91 92 95 97 103 105 104 103 101 98 115 170 180 170
280 278 278 278 278 276 262 264 268 280 281 272 265 271 279 288 300 246 190 154 131 122 110 103 100 96 94 96 100 100 95 92 90 91 91 91 89 92 114 127 114 100 74
278 276 272 275 269 262 251 257 268 269 261 246 251 263 257 227 171 173 153 142 128 116 111 112 103 101 99 97 97 97 94 92 86 75 73 75 77 83 102 120 111 84 58
273 270 270 251 252 244 257 269 239 236 219 222 232 216 206 174 171 169 148 133 124 117 112 104 96 90 87 90 94 97 95 95 87 76 77 76 73 76 81 90 72 66 57
268 262 255 251 246 244 249 249 235 207 196 197 186 169 160 165 161 153 141 136 129 124 114 101 95 95 91 88 86 91 97 98 84 78 77 74 73 77 76 74 67 67 59
251 247 244 230 217 219 229 234 225 189 175 165 157 140 142 146 146 143 138 128 126 116 107 103 100 96 88 81 83 86 88 85 74 73 80 77 70 68 74 73 67 61 53
211 211 209 192 190 189 190 218 176 164 161 143 137 129 119 116 112 117 117 115 112 106 102 98 101 100 92 85 86 95 87 71 72 73 73 73 73 64 63 67 62 53 50
168 165 164 154 149 167 164 168 158 154 143 137 130 122 117 117 120 118 116 118 112 105 107 105 100 96 88 87 96 94 79 71 69 66 61 59 55 53 54 49 46 64 49
118 131 140 150 155 147 140 139 136 139 141 131 125 119 119 118 118 119 120 114 112 108 112 104 96 94 96 93 89 82 71 66 59 56 57 57 56 50 51 43 44 64 61
122 128 132 132 129 122 119 115 118 120 113 108 110 112 112 111 118 114 114 104 105 115 107 101 97 93 92 88 77 71 67 63 57 49 49 53 53 56 44 41 36 61 62
115 121 123 121 120 119 114 114 111 107 107 107 108 106 110 115 114 106 105 108 105 103 96 94 91 85 81 77 74 70 67 69 59 52 48 49 52 46 42 39 35 61 46
116 121 119 120 119 119 118 115 116 115 111 108 106 106 105 101 99 101 105 108 106 98 89 86 83 80 77 74 71 66 62 58 54 49 44 42 47 47 45 44 42 44 59
116 116 120 122 121 119 119 119 118 116 115 113 110 103 101 98 99 103 108 100 95 90 88 86 83 80 77 74 68 66 64 61 53 46 43 44 47 45 42 44 37 49 57
116 121 123 123 118 117 119 120 120 118 111 112 107 106 106 109 106 101 96 93 91 89 87 86 85 80 76 71 63 56 55 56 47 41 39 40 39 42 40 51 35 52 55
122 124 125 123 122 124 121 119 118 114 107 105 108 113 117 109 104 101 97 93 91 89 86 82 81 77 67 67 68 59 54 50 45 39 35 36 38 43 42 55 44 52 52
127 128 125 124 124 122 116 115 113 109 110 110 110 111 110 105 103 100 97 95 92 88 85 81 80 83 78 67 59 56 55 51 46 39 36 40 41 42 51 59 44 48 60
128 126 127 126 120 118 114 111 112 113 112 112 113 111 106 104 103 102 99 96 93 90 86 85 81 78 74 69 67 63 57 52 50 48 43 45 50 57 61 56 48 55 61
127 126 121 120 118 113 114 115 115 114 113 113 112 108 107 106 105 101 100 99 95 91 88 82 78 75 71 67 63 62 59 57 55 53 54 56 59 61 60 59 57 57 62
119 118 115 114 116 115 114 113 115 115 114 112 111 111 109 106 104 103 100 97 95 91 86 81 76 72 69 67 65 62 58 55 54 58 56 56 60 60 59 57 54 55 61
123 119 118 118 116 116 116 117 116 115 115 116 115 112 110 109 105 102 101 100 96 91 84 78 74 71 69 66 62 60 59 56 54 55 56 55 57 59 54 55 56 58 56